AP586 Weather Reports


time (UTC)temp
C
wind
direction
speed
KPH
gust
KPH
rain 1hr
cm
rain 24hr
cm
rain mn
cm
humidity
%
barometer
mb
20260507191556 21 349 3.2 14.5 0.00 0.53 0.33 26 1002.8
20260507190048 20 289 3.2 19.3 0.00 0.53 0.33 29 1002.7
20260507184546 20 281 9.7 24.1 0.00 0.53 0.33 26 1002.9
20260507183052 20 249 8.0 22.5 0.00 0.53 0.33 27 1003.1
20260507181540 20 131 6.4 22.5 0.00 0.53 0.33 30 1003.1
20260507180047 20 315 9.7 22.5 0.00 0.53 0.33 31 1003.3
20260507174535 20 242 6.4 24.1 0.00 0.53 0.33 31 1003.3
20260507173039 19 270 8.0 24.1 0.00 0.53 0.33 33 1003.3
20260507171528 19 128 8.0 24.1 0.00 0.53 0.33 37 1003.4
20260507170042 18 260 1.6 20.9 0.00 0.53 0.33 40 1003.6
20260507164523 18 308 6.4 20.9 0.00 0.53 0.33 42 1003.7
20260507163023 18 300 4.8 14.5 0.00 0.53 0.33 44 1003.9
20260507161521 18 299 6.4 16.1 0.00 0.53 0.33 44 1004.0
20260507160024 18 268 6.4 16.1 0.00 0.53 0.33 49 1004.2
20260507154516 17 323 3.2 17.7 0.00 0.53 0.33 51 1004.4
20260507153015 17 306 1.6 14.5 0.00 0.53 0.33 51 1004.5
20260507151518 17 260 3.2 11.3 0.00 0.53 0.33 50 1004.6
20260507150012 17 252 3.2 24.1 0.00 0.53 0.33 51 1004.7
20260507144511 16 262 6.4 17.7 0.00 0.53 0.33 54 1004.8
20260507143009 16 336 1.6 9.7 0.00 0.53 0.33 53 1005.1
20260507141508 16 294 3.2 14.5 0.00 0.53 0.33 54 1005.0
20260507140007 15 296 1.6 12.9 0.00 0.53 0.33 56 1005.1
20260507134601 15 278 4.8 16.1 0.00 0.53 0.33 61 1005.2
20260507133059 14 280 4.8 17.7 0.00 0.53 0.33 68 1005.2
20260507131556 13 273 4.8 16.1 0.00 0.53 0.33 77 1005.3
20260507124557 11 304 0.0 14.5 0.00 0.53 0.33 92 1005.3
20260507123051 10 295 3.2 11.3 0.00 0.53 0.33 92 1005.5
20260507121554 10 279 0.0 11.3 0.00 0.53 0.33 92 1005.4
20260507120049 9 290 0.0 4.8 0.00 0.53 0.33 92 1005.1
20260507114547 9 266 0.0 6.4 0.03 0.53 0.33 92 1005.4
20260507113049 9 265 0.0 4.8 0.03 0.53 0.33 92 1005.3
20260507111546 8 264 0.0 4.8 0.03 0.53 0.33 91 1005.0
20260507110056 9 261 0.0 3.2 0.00 0.51 0.30 91 1004.9
20260507104550 8 261 0.0 3.2 0.03 0.51 0.30 91 1004.9
20260507103109 8 261 0.0 4.8 0.03 0.51 0.30 91 1005.3
20260507101541 8 265 0.0 3.2 0.05 0.51 0.30 91 1004.7
20260507100049 8 265 0.0 6.4 0.10 0.51 0.30 90 1004.9
20260507094537 9 294 0.0 8.0 0.15 0.48 0.28 90 1004.6
20260507093032 9 288 1.6 14.5 0.20 0.48 0.28 90 1004.8
20260507091538 9 290 3.2 14.5 0.20 0.46 0.25 89 1004.1
20260507090033 10 275 6.4 14.5 0.18 0.41 0.20 89 1004.6
20260507084538 10 291 1.6 11.3 0.10 0.33 0.13 88 1004.6
20260507083021 10 286 1.6 8.0 0.08 0.28 0.08 88 1004.3
20260507081518 11 290 4.8 12.9 0.05 0.25 0.05 87 1004.2
20260507080015 11 304 6.4 17.7 0.03 0.23 0.03 86 1004.3
20260507074512 12 290 4.8 16.1 0.03 0.23 0.03 86 1004.1
20260507073008 12 259 1.6 12.9 0.00 0.20 0.00 86 1003.8
20260507071506 12 285 3.2 12.9 0.00 0.20 0.00 86 1003.2
20260507070009 12 294 3.2 19.3 0.00 0.20 0.00 87 1003.3
20260507064504 12 271 1.6 9.7 0.00 0.20 0.00 88 1003.4
20260507063001 13 258 4.8 9.7 0.00 0.20 0.00 89 1003.4
20260507061602 13 288 3.2 8.0 0.00 0.20 0.00 89 1003.2
20260507060103 13 255 0.0 12.9 0.00 0.20 0.00 90 1003.4
20260507054613 13 261 3.2 9.7 0.00 0.20 0.00 91 1003.6
20260507053105 13 283 1.6 12.9 0.00 0.20 0.00 91 1003.7
20260507051557 14 300 0.0 4.8 0.00 0.20 0.00 91 1003.5
20260507050054 15 285 3.2 6.4 0.00 0.20 0.00 92 1003.4
20260507044554 15 245 1.6 6.4 0.00 0.20 0.00 92 1003.6
20260507043044 15 241 0.0 9.7 0.00 0.20 0.00 92 1003.3
20260507041547 15 284 4.8 16.1 0.00 0.20 0.00 92 1003.4
20260507040041 15 263 1.6 12.9 0.00 0.20 0.20 92 1003.6
20260507034538 14 189 6.4 11.3 0.00 0.20 0.20 92 1003.7
20260507033037 14 217 4.8 12.9 0.00 0.20 0.20 92 1003.5
20260507031539 14 234 6.4 16.1 0.00 0.20 0.20 92 1003.2
20260507030033 14 194 6.4 22.5 0.00 0.20 0.20 92 1003.2
20260507024537 14 187 9.7 14.5 0.00 0.20 0.20 92 1003.1
20260507023033 14 247 8.0 17.7 0.00 0.20 0.20 92 1003.0
20260507021536 14 169 8.0 24.1 0.00 0.20 0.20 92 1003.0
20260507020031 13 215 6.4 19.3 0.00 0.20 0.20 92 1003.1
20260507014532 13 240 4.8 17.7 0.00 0.20 0.20 92 1003.2
20260507013031 13 194 6.4 16.1 0.00 0.20 0.20 92 1003.5
20260507011531 13 203 9.7 20.9 0.00 0.20 0.20 92 1003.6
20260507010037 13 175 6.4 19.3 0.00 0.20 0.20 92 1003.7
20260507004528 13 190 8.0 17.7 0.00 0.20 0.20 92 1003.6
20260507003026 13 190 4.8 20.9 0.03 0.20 0.20 92 1003.6
20260507001528 13 215 11.3 30.6 0.03 0.20 0.20 92 1003.5
20260507000026 13 205 6.4 27.4 0.03 0.20 0.20 91 1003.4
20260506234521 13 196 8.0 29.0 0.03 0.20 0.20 91 1003.3
20260506233019 13 144 9.7 22.5 0.00 0.18 0.18 91 1003.2
20260506231519 14 193 11.3 24.1 0.00 0.18 0.18 91 1003.3
20260506230013 14 200 6.4 20.9 0.03 0.18 0.18 91 1003.4
20260506224514 14 192 8.0 19.3 0.03 0.18 0.18 91 1003.4
20260506223008 15 189 9.7 20.9 0.05 0.18 0.18 91 1003.6
20260506221506 15 157 11.3 24.1 0.10 0.18 0.18 90 1003.7
20260506220004 15 160 6.4 22.5 0.10 0.15 0.15 90 1003.8
20260506214603 15 155 8.0 24.1 0.10 0.15 0.15 90 1004.0
20260506213102 15 158 8.0 33.8 0.10 0.13 0.13 89 1004.1
20260506211558 15 168 17.7 40.2 0.05 0.08 0.08 88 1004.0
20260506210057 16 159 6.4 19.3 0.05 0.05 0.05 87 1004.1
20260506204556 16 198 11.3 24.1 0.05 0.05 0.05 85 1004.2
20260506203054 16 121 8.0 32.2 0.03 0.03 0.03 83 1004.2
20260506201553 16 325 9.7 37.0 0.03 0.03 0.03 82 1004.0
20260506200052 17 163 11.3 25.7 0.00 0.00 0.00 78 1004.1
20260506194551 17 215 8.0 22.5 0.00 0.00 0.00 76 1004.3
20260506193054 18 212 12.9 35.4 0.00 0.00 0.00 74 1004.6